Location: Bergnershof
(48.9468°N, 10.9431°E)
Time: 03:29:11
(UTC+00:00)

Okean 1-7 - Pass Details

Date: 03 March 2021
Orbit: 589 x 619 km, 82.5° (Epoch: 16 April)

Event Time Altitude Azimuth Distance (km) Brightness Sun altitude
Rises 17:56:52 0° 357° (N) 2,901 6.6 -9.6°
Reaches altitude 10° 17:59:17 10° 7° (N) 1,986 5.6 -10.0°
Maximum altitude 18:03:18 34° 72° (ENE) 1,019 3.7 -10.7°
Drops below altitude 10° 18:07:15 10° 138° (SE) 1,956 5.2 -11.3°
Enters shadow 18:08:51 - 146° (SE) 2,557 5.9 -11.6°
